Regional Weather Roundup
Issued by NWS Jackson, KY

Home | Current Version | Previous Version | Text Only | Print | Product List | Glossary On
Versions: 1 2 3 4 5 6 7 8 9 10 11 12 13 14 15 16 17 18 19 20 21 22 23 24 25 26 27 28 29 30 31 32 33 34 35 36 37 38 39 40 41 42 43 44 45 46 47 48
000
ASUS43 KJKL 011510
RWRJKL

EAST KENTUCKY HOURLY WEATHER ROUNDUP
NATIONAL WEATHER SERVICE JACKSON KY
1000 AM EST SUN MAR 01 2015

NOTE: "FAIR" INDICATES FEW OR NO CLOUDS BELOW 12,000 FEET WITH
NO SIGNIFICANT WEATHER AND/OR OBSTRUCTIONS TO VISIBILITY.

* THESE REPORTS ARE NOT UNDER NWS QUALITY CONTROL AND MAY NOT
  REPORT WEATHER SUCH AS PRECIPITATION AND FOG.

KYZ079-080-083-085-087-088-110-112-115-119-120-011600
...EASTERN KENTUCKY...

CITY           SKY/WX    TMP DP  RH WIND       PRES   REMARKS
JACKSON        LGT RAIN  37  27  67 CALM      30.39S
LONDON         CLOUDY    41  28  60 NW3       30.39F
SOMERSET*      CLOUDY    41  32  70 S3        30.40F
MONTICELLO*    CLOUDY    47  37  68 SE8       30.40F
MIDDLESBORO*   CLOUDY    42  29  61 SE6       30.43F
HAZARD APT*    CLOUDY    39  28  65 CALM      30.39F
BLACK MTN*       N/A     37  36  93 SW6         N/A  WCI  33
PIKEVILLE APT* CLOUDY    39  28  65 CALM      30.39R
BIG SANDY*     DRIZZLE   36  33  89 CALM      30.41R
MOREHEAD APT*  LGT RAIN  34  32  93 SE8       30.41F WCI  27
$$

KYZ035-036-041-042-044-050-067-078-099-011600
...CENTRAL KENTUCKY...

CITY           SKY/WX    TMP DP  RH WIND       PRES   REMARKS
MT STERLING*   LGT RAIN  36  34  93 S7        30.40S WCI  30
FLEMING/MASON* LGT RAIN  34  32  93 S7        30.38F WCI  28
DANVILLE*      LGT RAIN  36  32  87 CALM      30.38F
RICHMOND*      CLOUDY    37  32  81 CALM      30.38F
LEXINGTON      LGT RAIN  36  33  89 SE7       30.37F WCI  30
FRANKFORT      LGT RAIN  34  31  88 S5        30.36F FOG     WCI  30
$$

KYZ091>093-OHZ055-061-077-WVZ005-015-034-035-042-011600
...SOUTHERN OHIO/WEST VIRGINIA...

CITY           SKY/WX    TMP DP  RH WIND       PRES   REMARKS
COVINGTON      FRZ DRZL  32  27  81 S5        30.35F WCI  27
COLUMBUS       LGT SNOW  28  27  93 CALM      30.38S VSB 1
DAYTON         LGT SNOW  30  28  92 SW5       30.36F VSB 1   WCI  25
WILMINGTON     LGT SNOW  29  27  92 S7        30.35F VSB 1   WCI  22
HUNTINGTON     RAIN      31  31 100 E3        30.41F VSB 1
CHARLESTON     LGT RAIN  35  33  92 CALM      30.43R FOG
PINEVILLE*     CLOUDY    38  35  88 MISG      30.45F
BECKLEY        CLOUDY    35  27  72 SE13      30.38F WCI  26
BLUEFIELD      CLOUDY    43  31  62 VRB3      30.39F
$$

VAZ002-007-008-TNZ017-027-036-066-071-011600
...SOUTHWEST VIRGINIA/EAST TENNESSEE...

CITY           SKY/WX    TMP DP  RH WIND       PRES   REMARKS
WISE*          CLOUDY    45  30  57 SW5       30.40S
JONESVILLE*    CLOUDY    37  28  70 CALM      30.46S
ABINGDON*      CLOUDY    43  29  58 E7        30.44S
BRISTOL        CLOUDY    42  29  59 S3        30.44F
KNOXVILLE      CLOUDY    39  31  72 SE7       30.44F WCI  34
OAK RIDGE      CLOUDY    44  32  62 VRB6      30.46R
CROSSVILLE     CLOUDY    46  41  82 S12G18    30.39F
NASHVILLE      CLOUDY    50  38  63 S8        30.38S
$$

...KEY TO REMARKS...
VSB - VISIBILITY IN MILES
WCI - WIND CHILL INDEX
HX  - HEAT INDEX

$$



USA.gov is the U.S. government's official web portal to all federal, state and local government web resources and services.